Location: Peach Mountain Observatory
(42.3967°N, 83.9367°W)
Time: 21:35:16
(UTC-05:00)

deb Explorer IX - Pass Details

Date: 26 January 2020
Orbit: 549 x 1099 km, 38.8° (Epoch: 25 February)

Event Time Altitude Azimuth Distance (km) Brightness Sun altitude
Rises 20:47:21 0° 218° (SW) 3,584 ? -34.2°
Reaches altitude 10° 20:50:10 10° 208° (SSW) 2,721 ? -34.8°
Enters shadow 20:51:53 17° 198° (SSW) 2,265 ? -35.1°
